Theta_e
330 330 328 324 309 306 301 301 306 304 304 309 311 309 307 309 306 303 313 314 319 320 324 326 328 331 333 335 337 336 336 337 339 340 340 340 340 341 341 340 340 341 343 345 345 346 346 346 346
326 324 324 318 305 301 302 305 302 305 307 309 308 307 306 306 309 308 309 312 317 318 321 322 325 327 329 330 330 330 330 332 333 333 333 336 335 335 336 335 336 337 339 341 343 343 343 343 344
323 322 317 310 305 299 301 304 306 306 307 307 306 307 308 307 308 311 310 312 315 316 319 319 321 323 325 325 325 324 325 325 325 325 328 330 327 326 326 328 329 330 332 334 335 337 338 338 339
320 318 313 303 301 304 303 306 308 305 305 306 307 304 305 308 309 310 308 311 313 314 316 317 319 320 321 322 321 321 321 320 320 320 322 322 320 319 319 320 321 322 323 325 327 329 329 330 334
318 314 305 302 302 304 306 307 307 305 305 306 306 304 305 306 308 307 305 308 309 310 312 314 315 316 317 318 318 317 317 317 316 316 317 317 316 315 315 316 317 318 318 319 320 321 323 327 329
311 311 301 299 301 304 305 307 307 306 307 306 304 305 306 308 305 305 304 304 305 306 309 309 310 311 313 313 313 314 314 314 313 312 312 312 312 312 312 313 314 315 315 316 316 317 319 319 319
309 307 302 302 301 302 305 308 306 306 306 305 307 303 305 304 306 305 304 304 303 303 304 305 306 307 309 309 309 310 310 309 309 308 307 307 308 307 307 307 310 311 312 313 313 314 315 315 314
310 308 302 303 301 301 305 306 307 307 306 307 308 304 305 306 306 304 304 303 302 302 302 303 303 303 305 305 305 306 305 305 304 304 302 301 304 303 303 303 306 308 308 310 311 311 312 312 311
312 303 301 302 301 303 305 304 305 306 306 305 306 306 305 307 304 302 301 301 301 300 301 302 302 303 303 303 301 302 301 301 300 302 300 304 302 302 302 302 303 305 305 307 308 309 309 308 310
308 304 304 306 306 304 305 305 306 302 303 304 305 306 303 304 301 300 300 299 299 299 300 301 301 302 301 299 302 303 301 302 302 302 302 301 301 300 301 303 302 303 302 304 306 307 307 307 304
307 303 306 305 306 305 305 304 306 303 302 306 306 307 303 302 301 300 301 301 300 301 300 299 300 301 301 300 302 302 302 302 302 301 301 301 300 301 300 300 300 301 302 300 300 301 301 302 303
302 306 305 305 305 303 303 306 303 304 306 308 311 311 306 302 301 301 302 302 302 301 300 299 300 300 301 301 301 301 301 301 300 299 299 300 299 299 298 298 298 299 299 298 298 300 300 300 301
303 306 305 306 304 304 304 302 303 305 308 310 307 305 306 303 303 303 304 304 304 301 300 299 299 299 300 300 300 300 299 299 299 298 297 297 297 296 297 296 296 296 296 295 295 296 296 297 298
305 304 304 305 304 304 301 303 302 306 309 308 307 304 305 304 304 304 303 303 303 301 299 299 298 299 299 299 299 299 298 298 298 297 296 295 296 295 295 295 295 295 294 294 294 294 294 295 297
303 300 304 304 304 302 302 299 300 306 305 305 306 305 305 305 305 304 304 303 303 301 300 298 298 298 298 298 298 298 298 297 297 295 294 294 294 293 293 293 293 293 293 293 293 293 294 293 294
300 301 297 304 303 302 301 297 304 308 305 303 305 305 304 304 304 305 305 304 303 301 299 298 297 297 297 297 297 297 296 296 295 295 295 293 292 292 292 292 292 292 292 292 292 291 291 292 292
301 296 298 300 302 300 299 298 304 306 303 303 305 306 306 304 304 305 305 304 302 300 298 297 296 295 296 296 296 296 296 295 295 294 293 292 291 291 291 291 291 291 291 291 291 290 290 290 290
296 297 298 297 301 299 298 297 302 305 305 303 304 305 305 306 304 304 304 304 302 300 299 297 296 295 296 296 295 294 294 294 294 293 292 291 291 290 290 290 290 290 289 289 290 289 289 289 289
299 297 296 298 301 298 298 298 300 304 304 303 304 304 305 305 308 306 304 303 301 300 298 296 295 295 295 294 293 293 292 293 292 293 291 290 290 289 289 289 289 289 288 288 288 288 287 288 289
299 296 295 299 301 296 297 296 300 302 302 303 303 303 304 305 306 305 303 302 299 297 296 295 295 295 294 295 295 294 293 294 293 292 291 290 289 288 288 287 287 288 287 287 288 288 286 287 288
296 294 295 295 298 295 294 292 296 300 301 302 303 303 304 304 306 304 302 299 298 296 295 295 295 295 294 295 294 292 292 290 289 290 290 290 289 288 287 287 287 286 287 286 287 287 286 284 286
292 299 298 296 294 290 294 287 296 298 299 300 301 303 304 305 305 304 301 299 297 296 297 295 295 294 294 294 292 290 289 288 290 292 291 289 288 287 287 287 286 286 286 286 286 286 285 285 283
295 294 294 295 293 292 292 289 293 296 294 296 299 302 304 306 303 301 300 299 298 297 296 295 294 294 294 294 291 290 289 291 292 289 288 287 288 287 286 286 285 285 286 286 285 285 285 285 283
295 293 293 292 291 285 291 290 291 294 294 297 298 300 303 302 301 300 301 299 298 297 296 294 293 292 293 292 291 291 290 290 289 288 287 287 287 286 286 285 285 285 284 284 285 284 284 283 283
293 292 287 287 286 285 294 290 292 297 298 298 298 300 302 301 300 300 298 297 296 296 294 293 292 291 292 291 291 290 290 290 288 287 286 286 285 285 285 285 284 283 284 283 283 283 282 283 282
291 293 289 283 284 287 291 286 292 299 300 300 300 301 301 299 300 299 299 297 296 295 293 293 292 291 291 290 290 290 290 288 287 287 286 285 284 284 284 283 283 282 282 282 282 282 282 282 282
291 287 294 290 288 285 288 293 298 298 297 298 298 297 298 299 299 298 298 298 296 294 293 292 291 291 291 290 290 289 288 287 286 285 285 284 283 282 282 281 281 281 281 281 281 281 280 281 281
291 292 287 288 282 281 287 290 291 296 295 296 296 296 299 301 300 299 298 297 296 295 294 293 292 291 291 290 289 288 287 286 285 284 282 282 282 281 280 280 280 280 280 280 280 279 280 279 280
285 286 287 287 289 284 282 287 295 295 297 297 297 297 299 302 300 299 297 296 296 295 293 292 292 291 290 289 288 286 285 284 283 282 281 281 281 280 279 279 279 278 278 278 278 278 278 277 277
291 291 290 285 284 286 285 285 295 298 298 299 297 298 301 301 301 301 300 297 294 293 293 292 291 290 289 288 287 285 283 282 280 280 280 280 279 279 278 278 277 277 277 277 276 275 276 276 275
Wind_Speed
6 6 4 4 6 6 4 5 2 7 5 4 3 4 5 5 3 3 6 5 6 6 5 10 9 10 11 11 12 13 13 12 13 12 12 12 12 13 13 13 14 13 13 13 12 11 11 11 10
4 3 5 4 7 8 3 5 7 8 7 7 4 3 4 2 5 8 9 6 5 6 7 9 8 10 10 11 12 12 12 13 14 14 14 13 13 14 14 16 15 16 15 15 15 15 14 14 13
6 6 5 4 6 8 5 5 6 8 8 8 6 3 3 3 4 10 8 9 7 6 7 9 8 10 10 11 12 11 12 13 13 13 13 14 14 14 13 14 15 15 15 16 16 16 16 17 16
4 5 5 7 11 3 5 3 7 10 5 3 2 4 3 5 6 6 10 9 8 7 9 9 9 9 9 10 11 11 12 12 12 12 12 13 13 14 14 14 14 14 14 14 15 16 17 15 15
4 5 7 8 10 3 2 2 7 11 7 8 6 1 1 6 6 11 11 9 9 8 9 9 8 8 9 9 10 10 11 12 12 12 12 12 13 13 13 14 16 16 16 17 17 17 17 17 17
5 4 7 9 4 1 3 4 8 9 6 6 6 6 1 10 12 12 11 10 9 9 7 8 8 8 8 9 9 10 11 11 12 12 12 13 13 13 13 14 15 15 15 16 16 16 16 16 17
7 6 10 9 9 5 6 6 10 10 9 9 1 5 5 10 12 12 11 10 9 9 8 7 7 9 8 9 9 10 10 11 11 12 11 11 12 12 13 13 14 14 14 14 14 15 15 15 15
4 4 7 5 6 6 4 8 3 10 11 5 5 7 8 13 15 13 11 10 9 8 7 6 6 5 6 7 8 9 9 9 10 10 8 5 8 8 9 12 14 13 14 13 14 14 15 15 14
2 5 7 5 4 2 4 9 3 5 7 5 9 7 5 15 17 14 12 12 10 8 8 8 7 7 6 7 7 8 7 6 4 5 3 2 5 7 8 10 13 13 16 14 16 15 15 14 10
7 5 5 2 3 4 6 10 8 6 11 14 13 11 6 18 17 18 17 15 15 14 12 9 8 7 7 5 5 4 3 3 4 5 5 4 6 6 6 6 10 12 14 13 15 15 15 13 10
4 6 2 6 7 5 8 9 8 10 15 14 16 16 15 19 18 19 19 17 18 15 12 12 10 9 8 5 4 3 2 2 3 5 5 5 4 5 5 5 6 7 10 8 11 10 8 11 9
6 12 8 1 3 4 8 6 8 18 19 2 9 11 20 20 20 21 20 19 17 17 15 13 11 9 8 5 4 4 3 2 2 3 4 3 3 5 6 5 7 6 6 8 8 5 8 10 11
11 11 6 8 5 9 5 13 12 18 19 18 7 5 15 18 21 20 19 18 17 18 16 15 13 11 9 8 5 4 4 3 3 2 4 4 4 4 4 5 5 5 6 7 8 8 8 9 10
7 9 11 7 11 9 9 13 3 12 14 19 16 15 16 19 21 19 20 20 19 17 17 15 14 12 10 8 7 5 4 4 3 2 3 4 3 3 3 3 4 5 6 7 7 8 8 7 8
5 9 12 14 12 7 7 12 19 21 6 11 15 16 17 19 19 23 21 20 19 16 17 17 15 13 12 10 8 6 5 5 4 3 3 3 3 4 4 4 4 5 6 7 7 8 8 8 8
7 6 11 1 10 5 8 18 11 8 9 13 16 16 17 20 23 21 20 20 19 18 18 17 13 14 13 11 9 6 6 5 4 3 2 3 3 4 3 3 4 5 5 6 6 7 8 8 8
11 13 16 12 14 4 13 15 4 4 7 14 16 17 17 19 21 20 20 20 20 20 19 17 16 15 13 11 8 7 7 5 4 3 3 4 2 3 3 3 4 5 5 6 7 7 8 8 8
16 17 15 16 10 13 14 21 23 17 16 20 21 21 20 20 21 19 20 18 19 19 18 18 15 15 13 8 6 6 6 5 4 4 3 4 2 1 2 3 4 4 5 6 6 8 8 9 9
22 21 22 25 6 11 19 22 25 23 20 23 22 22 21 20 17 17 18 18 18 18 18 18 17 15 11 8 7 6 7 6 5 5 5 4 3 1 2 3 4 4 5 7 8 7 9 8 9
20 22 26 23 6 7 17 22 22 22 25 24 23 21 20 16 15 14 18 18 18 18 17 18 18 17 14 9 8 5 6 5 5 5 5 4 3 2 3 5 5 6 6 9 8 7 7 7 4
20 21 22 21 7 13 13 17 17 14 18 19 19 23 18 17 14 15 17 20 19 20 20 19 19 18 16 14 9 6 4 3 5 6 5 5 4 4 6 7 6 6 7 8 7 7 8 7 6
20 16 19 19 11 12 3 16 12 15 17 14 18 22 16 12 11 12 17 19 21 19 17 19 19 18 16 16 12 15 9 7 6 4 4 4 5 6 7 7 6 7 7 9 7 5 6 7 8
12 3 4 9 13 17 13 17 14 7 10 13 17 22 16 5 8 13 16 17 17 18 18 18 18 17 16 16 15 12 11 7 5 6 6 6 6 7 6 6 7 8 7 8 8 8 8 7 7
5 3 5 5 7 13 16 20 6 8 5 5 11 17 4 5 8 12 13 15 15 15 16 16 18 17 16 17 17 15 13 11 8 7 6 5 5 4 6 7 7 7 8 9 8 8 10 9 9
8 6 6 9 9 19 14 15 14 9 13 14 22 21 4 8 11 13 16 16 15 16 17 16 20 20 20 19 18 16 14 12 11 9 7 7 5 5 6 6 7 7 8 9 9 9 10 10 10
14 11 7 14 15 25 2 15 11 13 15 14 16 9 3 8 9 12 14 15 16 18 19 20 21 21 20 19 18 15 14 8 8 8 6 5 6 6 6 6 7 9 9 10 9 8 8 10 9
9 8 3 9 1 10 12 20 15 7 11 17 7 5 9 12 13 14 14 14 15 17 20 22 21 20 20 20 17 16 14 12 10 10 9 7 7 6 7 7 8 9 10 11 11 8 11 10 11
6 2 6 5 7 17 28 23 15 15 18 11 8 9 12 8 10 12 12 13 14 16 16 19 19 20 19 18 16 14 14 13 11 10 10 10 8 7 7 8 9 10 11 11 11 10 11 11 10
6 8 6 4 8 11 21 12 7 8 5 9 8 7 7 3 7 10 11 12 14 14 15 16 18 19 19 18 17 16 14 13 11 10 9 9 7 7 8 9 10 10 11 11 11 12 13 13 13
8 21 19 11 14 9 14 34 7 1 3 4 6 6 6 7 8 10 12 14 14 16 15 16 16 17 18 17 17 16 15 13 12 10 10 8 8 7 8 8 9 10 10 10 11 13 12 13 14
Wind_Direction
210 232 270 247 244 235 235 190 104 162 168 104 252 173 269 3 307 5 123 106 117 94 81 76 47 59 56 46 50 50 48 47 46 47 45 42 39 35 29 25 20 16 12 9 7 5 8 12 10
238 248 236 278 254 246 138 133 184 170 90 148 151 220 253 210 86 120 151 133 112 91 77 68 54 67 68 69 62 54 51 52 50 46 41 42 39 35 32 25 22 20 14 9 5 1 4 3 359
261 261 264 243 259 270 352 164 163 101 136 170 173 267 334 62 115 141 100 137 132 103 94 79 73 73 75 76 75 70 66 63 59 53 52 52 46 40 34 33 29 19 13 9 7 2 4 2 357
250 201 229 251 260 281 315 178 130 146 149 212 276 207 138 43 144 132 141 151 131 123 115 98 85 84 87 86 82 77 72 69 67 64 60 55 46 41 34 30 26 20 13 7 3 0 355 352 352
229 260 255 248 276 283 239 292 160 179 158 172 192 169 195 156 115 136 151 153 146 140 126 107 91 90 89 87 82 80 77 74 69 63 60 58 52 44 35 29 24 17 10 7 3 359 354 358 354
239 277 253 259 285 149 241 195 193 198 171 124 202 247 190 133 164 161 158 154 153 145 137 125 100 92 90 85 82 79 74 71 68 64 59 56 53 47 42 35 26 19 14 7 2 356 354 353 348
266 261 277 298 278 250 225 183 204 209 193 204 28 237 86 173 176 165 167 156 160 151 157 154 137 111 91 84 82 82 79 74 66 62 60 60 51 46 40 35 25 21 14 7 3 357 352 344 338
272 267 272 254 295 271 153 190 283 226 232 93 182 231 220 179 168 172 170 173 172 167 166 162 158 158 138 116 93 93 88 80 70 62 62 59 79 48 51 30 24 22 14 8 4 356 350 341 331
249 250 264 271 264 358 143 210 179 357 238 202 195 264 72 146 160 175 182 189 187 186 184 175 176 172 154 137 126 126 112 102 103 114 66 160 56 38 40 41 22 16 11 6 0 355 346 340 338
241 254 279 326 266 246 186 227 192 222 219 228 231 218 160 157 175 185 192 195 198 194 191 186 184 179 169 159 156 137 130 84 69 49 42 36 42 42 21 41 21 13 12 1 358 354 348 357 346
198 252 7 244 247 250 241 223 212 223 247 225 232 222 184 183 191 199 202 203 200 194 189 188 183 178 181 166 174 166 159 147 99 59 38 40 38 23 25 18 13 5 13 3 356 352 357 345 339
257 246 248 267 219 235 235 262 228 226 236 353 251 245 176 198 203 206 207 206 199 197 192 190 182 180 178 173 191 164 162 153 121 82 43 46 38 26 21 19 8 3 3 353 350 344 340 338 332
245 273 249 248 224 238 257 242 249 256 242 253 211 217 196 206 213 213 214 211 204 200 193 189 182 182 176 186 172 173 160 172 127 116 63 30 44 34 24 15 4 356 354 350 343 340 337 329 329
356 287 264 251 241 232 233 256 243 256 244 241 230 223 224 215 215 214 211 209 205 198 198 189 188 184 176 184 180 173 174 154 165 127 83 75 47 42 26 7 359 356 355 346 329 328 324 319 318
280 278 268 241 235 241 213 249 235 251 219 236 234 229 229 224 218 218 211 211 203 198 194 193 188 184 181 181 180 178 173 180 171 149 145 101 60 37 10 8 354 357 342 325 320 320 318 318 317
255 248 266 327 181 190 203 268 246 250 188 232 240 232 233 228 222 220 214 207 202 196 195 189 189 184 183 182 182 181 174 181 173 174 163 102 63 39 10 358 347 347 322 320 321 321 323 320 317
208 264 266 244 190 170 210 267 272 132 231 258 255 251 237 235 229 223 215 205 201 196 193 188 188 187 184 182 180 177 174 193 179 180 181 136 109 48 3 342 329 327 315 320 321 325 323 315 314
271 266 264 262 192 214 231 252 271 266 262 260 262 264 261 243 229 220 219 208 199 194 193 189 186 187 180 174 177 180 183 190 184 196 180 163 146 132 311 311 304 306 308 308 312 311 309 307 313
276 283 278 273 265 213 241 253 264 278 274 273 270 272 258 254 249 203 207 205 195 193 192 192 188 188 178 177 176 195 199 193 192 188 181 190 182 215 305 301 294 288 283 286 287 294 305 315 323
264 263 268 276 273 210 267 267 268 272 267 266 274 272 266 266 237 195 200 198 192 190 192 192 194 190 189 185 190 190 188 193 193 176 185 194 195 222 268 261 264 266 275 276 277 288 300 298 315
248 252 261 264 271 218 274 269 256 246 252 260 266 262 265 260 245 193 194 191 191 195 194 194 193 191 189 185 180 178 150 175 191 198 196 186 188 218 232 247 259 275 274 273 283 283 294 299 312
262 269 252 266 273 265 155 284 272 286 266 238 265 275 269 247 227 193 187 194 196 198 195 196 196 193 188 186 183 190 195 188 195 168 156 172 213 232 242 253 268 271 271 273 278 287 284 292 293
249 340 260 254 256 278 261 268 269 221 264 249 246 261 276 296 181 194 188 195 196 193 195 194 196 195 186 185 191 193 199 196 163 167 187 210 223 232 244 254 260 265 273 279 284 284 279 284 284
111 254 239 229 260 251 250 240 278 231 204 237 256 262 198 144 178 193 185 189 196 189 194 191 196 197 191 189 195 197 197 191 184 189 202 212 223 240 242 245 255 264 271 273 282 287 284 281 279
203 212 268 244 224 261 269 262 266 278 252 238 256 265 119 161 180 184 180 187 192 191 191 193 198 201 194 194 196 196 195 194 194 192 203 215 224 233 239 246 258 266 279 286 288 287 280 279 277
197 215 219 273 269 284 234 263 252 248 238 238 253 261 244 186 191 193 193 191 192 190 193 194 203 201 196 194 195 191 191 190 188 193 201 215 229 244 253 264 270 273 276 280 280 277 277 279 277
156 204 302 275 174 280 263 258 253 167 198 229 228 218 233 220 211 207 206 198 196 194 197 200 201 203 200 195 190 187 185 183 184 187 195 209 224 235 247 258 269 272 273 275 279 275 277 279 279
235 99 176 213 274 265 278 281 269 262 232 221 231 236 258 217 207 211 211 201 201 204 202 202 204 203 199 192 190 185 179 181 181 182 193 204 211 221 237 250 257 266 270 275 280 282 280 281 279
182 220 223 297 240 258 280 269 71 109 147 176 214 227 249 213 207 217 204 206 207 207 201 205 204 198 197 191 186 181 176 178 179 185 196 203 208 217 233 245 257 265 271 278 280 278 283 282 281
270 231 216 218 223 232 252 274 68 210 252 146 154 199 210 211 225 233 210 204 201 207 204 205 200 199 198 187 183 180 170 172 175 185 192 192 205 216 231 245 258 265 269 274 276 279 281 282 280